Powrót do katalogu

DELTA 1 DEB

AktywnySSO
NORAD 7136·DEBRIS·🇺🇸 United States

Wystrzelony Nov 6, 1973 z Vandenberg Space Force Base

Loading…

Następne Przeloty (najbliższe 24 godziny)

TLE

ŚwieżeSource: Space-Track

Epoka: Sep 14, 2026, 04:49 UTC

1 07136U 73086DA  26257.20089456  .00000080  00000-0  77525-3 0  9994
2 07136 101.6052 233.4330 0043677 276.9631  96.8929 12.53977089412655

Śledź DELTA 1 DEB w czasie rzeczywistym z AllMySat

Download on the App Store